Roswell, NM

12:35 AM MST on February 08, 2016 (GMT -0700)
Roswell Industrial

Weather History for KROW - May, 2014

Change the Weather History Date:

Monday, May 19, 2014

  Actual Average Record
Temperature  
Mean Temperature 78 °F 71 °F  
Max Temperature 98 °F 86 °F 104 °F (1996)
Min Temperature 57 °F 56 °F 35 °F (1903)
Degree Days  
Heating Degree Days 0 1  
Month to date heating degree days 41 26  
Since 1 July heating degree days 3273 3284  
Cooling Degree Days 13 7  
Month to date cooling degree days 102 86  
Year to date cooling degree days 147 126  
Growing Degree Days 28 (Base 50)    
Moisture  
Dew Point 15 °F    
Average Humidity 37    
Maximum Humidity 72    
Minimum Humidity 2    
Precipitation  
Precipitation 0.00 in 0.04 in 0.73 in (1994)
Month to date precipitation 0.00 0.75  
Year to date precipitation 0.41 2.67  
Sea Level Pressure  
Sea Level Pressure 29.68 in    
Wind  
Wind Speed 12 mph (SSW)    
Max Wind Speed 29 mph    
Max Gust Speed 35 mph    
Visibility 10 miles    
Events      
T = Trace of Precipitation, MM = Missing Value Source: NWS Daily Summary

Daily Weather History Graph

Daily Weather History Graph

Search for Another Location

Airport or City:

Trip Planner

Search our weather history database for the weather conditions in past years. The results will help you decide how hot, cold, wet, or windy it might be!

Date:

Astronomy

May. 19, 2014 Rise Set
Actual Time 5:55 AM MDT 7:54 PM MDT
Civil Twilight 5:27 AM MDT 8:21 PM MDT
Nautical Twilight 4:54 AM MDT 8:55 PM MDT
Astronomical Twilight 4:18 AM MDT 9:31 PM MDT
Moon No Moon Rise 10:51 AM MDT (5/19)
Length of Visible Light 14h 53m
Length of Day
13h 58m
Waning Gibbous, 70% of the Moon is Illuminated
May 19
Waning Gibbous
May 21
Last Quarter
May 28
New
Jun 5
First Quarter
Jun 12
Full

Hourly Weather History & Observations

Time (MDT) Temp. Dew Point Humidity Pressure Visibility Wind Dir Wind Speed Gust Speed Precip Events Conditions
12:51 AM 73.0 °F 46.9 °F 39% 29.68 in 10.0 mi South 16.1 mph - N/A   Clear
1:51 AM 69.1 °F 50.0 °F 51% 29.67 in 10.0 mi SSE 11.5 mph - N/A   Clear
2:51 AM 66.9 °F 51.1 °F 57% 29.66 in 10.0 mi SSE 6.9 mph - N/A   Clear
3:51 AM 66.9 °F 51.1 °F 57% 29.66 in 10.0 mi South 15.0 mph - N/A   Clear
4:51 AM 62.1 °F 50.0 °F 65% 29.68 in 10.0 mi South 9.2 mph - N/A   Clear
5:51 AM 57.9 °F 48.9 °F 72% 29.69 in 10.0 mi SSW 6.9 mph - N/A   Clear
8:51 AM 75.9 °F 26.1 °F 16% 29.73 in 10.0 mi South 5.8 mph - N/A   Clear
9:51 AM 81.0 °F 19.9 °F 10% 29.72 in 10.0 mi SE 6.9 mph - N/A   Clear
10:49 AM 91.4 °F 8.6 °F 5% 29.91 in 10.0 mi SW 17.3 mph - N/A   Clear
10:51 AM 91.0 °F 8.1 °F 4% 29.69 in 10.0 mi SW 16.1 mph - N/A   Clear
11:51 AM 93.0 °F 6.1 °F 4% 29.68 in 10.0 mi SW 11.5 mph 19.6 mph N/A   Clear
12:51 PM 93.0 °F 3.9 °F 4% 29.67 in 10.0 mi SSW 9.2 mph 23.0 mph N/A   Clear
1:51 PM 93.9 °F 1.9 °F 4% 29.66 in 10.0 mi South 17.3 mph 25.3 mph N/A   Clear
3:51 PM 93.9 °F -2.9 °F 4% 29.62 in 10.0 mi SW 18.4 mph 33.4 mph N/A   Clear
4:51 PM 93.9 °F -5.1 °F 4% 29.62 in 10.0 mi SSW 9.2 mph - N/A   Clear
5:51 PM 93.9 °F -7.1 °F 4% 29.63 in 10.0 mi SSW 24.2 mph 29.9 mph N/A   Clear
6:51 PM 90.0 °F -6.0 °F 4% 29.64 in 10.0 mi SW 21.9 mph - N/A   Clear
7:51 PM 84.9 °F -2.9 °F 4% 29.66 in 10.0 mi SSW 13.8 mph - N/A   Clear
8:51 PM 80.1 °F -2.9 °F 4% 29.68 in 10.0 mi WSW 9.2 mph - N/A   Clear
9:51 PM 80.1 °F -2.0 °F 4% 29.68 in 10.0 mi West 15.0 mph - N/A   Clear
10:51 PM 75.9 °F -0.9 °F 5% 29.68 in 10.0 mi SW 12.7 mph - N/A   Clear
11:51 PM 73.0 °F -0.9 °F 5% 29.68 in 10.0 mi SW 11.5 mph - N/A   Clear